UAL8420 KDEN-KCOS

Flight info

Callsign UAL8420
Flight time 0h 21m
Altitude 11000
Route LUFSE V389 ADANE BRK
Aircraft B738/M-SDE2E3FGHIRWXY/LB1

Departure

Time 2026-04-21 03:01
Airport Denver International Airport (KDEN)

Arrival

Time 2026-04-21 03:23
Airport City of Colorado Springs Municipal Airport (KCOS)
Time Latitude Longitude Altitude Speed Heading
2026-04-21 02:40 39.85939 -104.67659 5379 ft 0 kts 180°
2026-04-21 02:50 39.85944 -104.67659 5375 ft 2 kts 180°
2026-04-21 02:51 39.85964 -104.67659 5377 ft 3 kts 180°
2026-04-21 02:51 39.85984 -104.67659 5377 ft 3 kts 180°
2026-04-21 02:51 39.86004 -104.67659 5378 ft 3 kts 180°
2026-04-21 02:51 39.86024 -104.67659 5376 ft 2 kts 180°
2026-04-21 02:52 39.86028 -104.67659 5376 ft 5 kts 180°
2026-04-21 02:53 39.86026 -104.67659 5378 ft 1 kts 173°
2026-04-21 02:54 39.86021 -104.67627 5375 ft 9 kts 72°
2026-04-21 02:54 39.86082 -104.67568 5377 ft 9 kts 29°
2026-04-21 02:54 39.86119 -104.67521 5376 ft 8 kts 59°
2026-04-21 02:54 39.86131 -104.67433 5376 ft 13 kts 89°
2026-04-21 02:55 39.86131 -104.67282 5376 ft 20 kts 90°
2026-04-21 02:55 39.86130 -104.67119 5376 ft 17 kts 90°
2026-04-21 02:55 39.86129 -104.66957 5376 ft 17 kts 91°
2026-04-21 02:55 39.86128 -104.66830 5376 ft 12 kts 91°
2026-04-21 02:56 39.86128 -104.66739 5377 ft 12 kts 90°
2026-04-21 02:56 39.86109 -104.66443 5374 ft 13 kts 94°
2026-04-21 02:56 39.86106 -104.66360 5378 ft 6 kts 92°
2026-04-21 02:57 39.86111 -104.66287 5382 ft 12 kts 75°
2026-04-21 02:57 39.86206 -104.66231 5381 ft 17 kts
2026-04-21 02:57 39.86332 -104.66226 5381 ft 21 kts 359°
2026-04-21 02:57 39.86472 -104.66225 5378 ft 19 kts 360°
2026-04-21 02:58 39.86629 -104.66223 5376 ft 26 kts
2026-04-21 02:58 39.86841 -104.66220 5371 ft 35 kts
2026-04-21 02:58 39.87088 -104.66217 5366 ft 35 kts
2026-04-21 02:58 39.87334 -104.66214 5362 ft 35 kts
2026-04-21 02:59 39.87562 -104.66211 5360 ft 19 kts
2026-04-21 02:59 39.87698 -104.66207 5361 ft 19 kts
2026-04-21 02:59 39.87755 -104.66100 5358 ft 20 kts 90°
2026-04-21 02:59 39.87752 -104.65672 5353 ft 75 kts 90°
2026-04-21 03:00 39.87745 -104.64775 5344 ft 122 kts 91°
2026-04-21 03:00 39.87735 -104.63483 5321 ft 161 kts 91°
2026-04-21 03:00 39.87729 -104.61908 5380 ft 187 kts 92°
2026-04-21 03:00 39.87732 -104.60200 5785 ft 194 kts 92°
2026-04-21 03:01 39.87543 -104.58408 6029 ft 205 kts 109°
2026-04-21 03:01 39.87111 -104.56667 6599 ft 196 kts 110°
2026-04-21 03:01 39.86584 -104.55004 6928 ft 206 kts 114°
2026-04-21 03:01 39.86003 -104.53217 7114 ft 219 kts 112°
2026-04-21 03:02 39.85419 -104.51354 7476 ft 224 kts 112°
2026-04-21 03:02 39.84831 -104.49466 7919 ft 225 kts 112°
2026-04-21 03:02 39.84226 -104.47522 8072 ft 241 kts 112°
2026-04-21 03:02 39.83572 -104.45430 8204 ft 258 kts 112°
2026-04-21 03:03 39.82743 -104.43290 8306 ft 274 kts 130°
2026-04-21 03:03 39.81131 -104.41915 8477 ft 286 kts 165°
2026-04-21 03:03 39.79145 -104.41689 8746 ft 299 kts 179°
2026-04-21 03:03 39.76983 -104.41681 8885 ft 321 kts 180°
2026-04-21 03:04 39.74704 -104.41666 9336 ft 328 kts 180°
2026-04-21 03:04 39.72464 -104.41616 10399 ft 313 kts 179°
2026-04-21 03:04 39.70294 -104.41538 10861 ft 312 kts 179°
2026-04-21 03:04 39.68142 -104.41435 11010 ft 310 kts 179°
2026-04-21 03:05 39.65994 -104.41317 10993 ft 307 kts 178°
2026-04-21 03:05 39.63852 -104.41189 10999 ft 315 kts 178°
2026-04-21 03:05 39.61606 -104.41050 10986 ft 327 kts 178°
2026-04-21 03:05 39.59324 -104.40904 10972 ft 330 kts 178°
2026-04-21 03:06 39.57021 -104.40754 10957 ft 332 kts 178°
2026-04-21 03:06 39.54733 -104.40603 10947 ft 328 kts 177°
2026-04-21 03:06 39.52462 -104.40453 10926 ft 326 kts 177°
2026-04-21 03:06 39.50194 -104.40302 10920 ft 327 kts 177°
2026-04-21 03:07 39.47914 -104.40151 10918 ft 328 kts 177°
2026-04-21 03:07 39.45635 -104.40000 10902 ft 327 kts 177°
2026-04-21 03:07 39.43360 -104.39855 10894 ft 327 kts 177°
2026-04-21 03:07 39.41083 -104.39713 10898 ft 328 kts 177°
2026-04-21 03:08 39.38831 -104.39570 10898 ft 328 kts 177°
2026-04-21 03:08 39.36557 -104.39422 10897 ft 327 kts 177°
2026-04-21 03:08 39.34289 -104.39272 10907 ft 325 kts 176°
2026-04-21 03:08 39.32039 -104.39121 10895 ft 322 kts 175°
2026-04-21 03:09 39.29798 -104.38969 10896 ft 322 kts 175°
2026-04-21 03:09 39.27563 -104.38817 10892 ft 322 kts 175°
2026-04-21 03:09 39.25330 -104.38666 10911 ft 322 kts 175°
2026-04-21 03:09 39.23092 -104.38514 10920 ft 323 kts 175°
2026-04-21 03:10 39.20841 -104.38396 10926 ft 324 kts 178°
2026-04-21 03:10 39.18586 -104.38457 10943 ft 324 kts 181°
2026-04-21 03:10 39.16330 -104.38589 10961 ft 325 kts 181°
2026-04-21 03:10 39.14066 -104.38728 10979 ft 325 kts 181°
2026-04-21 03:11 39.11812 -104.38861 10999 ft 324 kts 181°
2026-04-21 03:11 39.09557 -104.38986 11014 ft 325 kts 181°
2026-04-21 03:11 39.07338 -104.39104 10999 ft 320 kts 181°
2026-04-21 03:11 39.05133 -104.39218 10947 ft 311 kts 181°
2026-04-21 03:12 39.03005 -104.39327 10883 ft 300 kts 181°
2026-04-21 03:12 39.00944 -104.39432 10740 ft 293 kts 181°
2026-04-21 03:12 38.98913 -104.39534 10486 ft 291 kts 181°
2026-04-21 03:12 38.96889 -104.39635 10196 ft 291 kts 181°
2026-04-21 03:13 38.94870 -104.39736 9995 ft 286 kts 181°
2026-04-21 03:13 38.92915 -104.39835 9885 ft 278 kts 181°
2026-04-21 03:13 38.90982 -104.39933 9547 ft 279 kts 182°
2026-04-21 03:13 38.89699 -104.40008 9372 ft 278 kts 182°
2026-04-21 03:14 38.87762 -104.40118 9110 ft 278 kts 182°
2026-04-21 03:14 38.85820 -104.40217 9090 ft 283 kts 182°
2026-04-21 03:14 38.83853 -104.40313 9044 ft 281 kts 182°
2026-04-21 03:14 38.81913 -104.40409 9023 ft 277 kts 182°
2026-04-21 03:15 38.80007 -104.40489 9014 ft 272 kts 181°
2026-04-21 03:15 38.78111 -104.40564 9005 ft 274 kts 182°
2026-04-21 03:15 38.76197 -104.40654 9000 ft 276 kts 182°
2026-04-21 03:15 38.74266 -104.40750 8982 ft 278 kts 181°
2026-04-21 03:16 38.72329 -104.40847 8956 ft 279 kts 181°
2026-04-21 03:16 38.70419 -104.40942 8947 ft 277 kts 181°
2026-04-21 03:16 38.68507 -104.41037 8937 ft 273 kts 181°
2026-04-21 03:16 38.66619 -104.41130 8868 ft 270 kts 182°
2026-04-21 03:17 38.64750 -104.41245 8856 ft 268 kts 187°
2026-04-21 03:17 38.63022 -104.42085 8867 ft 270 kts 216°
2026-04-21 03:17 38.61770 -104.43897 8862 ft 279 kts 241°
2026-04-21 03:17 38.61252 -104.46289 8865 ft 283 kts 266°
2026-04-21 03:18 38.61425 -104.48773 8875 ft 277 kts 277°
2026-04-21 03:18 38.61716 -104.51152 8899 ft 266 kts 277°
2026-04-21 03:18 38.61995 -104.53483 8896 ft 267 kts 276°
2026-04-21 03:18 38.62268 -104.55866 8898 ft 273 kts 276°
2026-04-21 03:19 38.62540 -104.58285 8896 ft 275 kts 276°
2026-04-21 03:19 38.62811 -104.60709 8880 ft 275 kts 276°
2026-04-21 03:19 38.63076 -104.63095 8880 ft 274 kts 276°
2026-04-21 03:19 38.63509 -104.65475 8770 ft 279 kts 291°
2026-04-21 03:20 38.64625 -104.67505 8467 ft 282 kts 319°
2026-04-21 03:20 38.66276 -104.68674 8211 ft 264 kts 345°
2026-04-21 03:20 38.68043 -104.68855 8003 ft 249 kts
2026-04-21 03:20 38.69721 -104.68678 7703 ft 236 kts
2026-04-21 03:21 38.71328 -104.68627 7414 ft 225 kts
2026-04-21 03:21 38.72865 -104.68607 7159 ft 217 kts
2026-04-21 03:21 38.74348 -104.68599 6852 ft 207 kts
2026-04-21 03:21 38.75749 -104.68593 6554 ft 194 kts
2026-04-21 03:22 38.77056 -104.68588 6266 ft 182 kts
2026-04-21 03:22 38.78319 -104.68588 6140 ft 177 kts
2026-04-21 03:22 38.79465 -104.68581 6137 ft 145 kts
2026-04-21 03:22 38.80274 -104.68577 6150 ft 90 kts 360°
2026-04-21 03:23 38.80723 -104.68642 6158 ft 37 kts 330°
2026-04-21 03:23 38.80736 -104.68781 6158 ft 17 kts 194°
2026-04-21 03:23 38.80619 -104.68789 6156 ft 16 kts 179°
2026-04-21 03:23 38.80510 -104.68789 6154 ft 15 kts 180°
2026-04-21 03:24 38.80399 -104.68798 6152 ft 16 kts 188°
2026-04-21 03:24 38.80356 -104.68898 6152 ft 13 kts 270°
2026-04-21 03:24 38.80361 -104.69017 6152 ft 17 kts 271°
2026-04-21 03:24 38.80360 -104.69223 6152 ft 28 kts 271°
2026-04-21 03:25 38.80362 -104.69470 6152 ft 27 kts 269°
2026-04-21 03:25 38.80350 -104.69688 6153 ft 23 kts 229°
2026-04-21 03:25 38.80212 -104.69724 6149 ft 20 kts 184°
2026-04-21 03:25 38.80083 -104.69742 6147 ft 16 kts 215°
2026-04-21 03:26 38.80023 -104.69836 6146 ft 11 kts 236°
2026-04-21 03:26 38.79986 -104.69918 6144 ft 11 kts 254°
2026-04-21 03:26 38.79976 -104.69998 6144 ft 7 kts 259°
2026-04-21 03:26 38.79973 -104.70020 6143 ft 1 kts 259°
2026-04-21 03:27 38.79973 -104.70021 6143 ft 0 kts 259°